Lenoir, NC

10:43 AM EST on December 05, 2016 (GMT -0500)
Morganton-Lenoir

Weather History for KMRN - April, 2014

Change the Weather History Date:

Sunday, April 20, 2014

  Actual Average (KHKY) Record (KHKY)
Temperature  
Mean Temperature 57 °F -  
Max Temperature 71 °F 72 °F 88 °F (2002)
Min Temperature 41 °F 48 °F 31 °F (1953)
Degree Days  
Heating Degree Days 8    
Growing Degree Days 7 (Base 50)    
Moisture  
Dew Point 39 °F    
Average Humidity 62    
Maximum Humidity 100    
Minimum Humidity 19    
Precipitation  
Precipitation 0.00 in - - ()
Sea Level Pressure  
Sea Level Pressure 30.28 in    
Wind  
Wind Speed 4 mph (NNE)    
Max Wind Speed 10 mph    
Max Gust Speed 17 mph    
Visibility 9 miles    
Events Fog    
Averages and records for this station are not official NWS values.
T = Trace of Precipitation, MM = Missing Value Source: NWS Daily Summary

Daily Weather History Graph

Daily Weather History Graph

Search for Another Location

Airport or City:

Trip Planner

Search our weather history database for the weather conditions in past years. The results will help you decide how hot, cold, wet, or windy it might be!

Date:

Astronomy

Apr. 20, 2014 Rise Set
Actual Time 6:47 AM EDT 8:04 PM EDT
Civil Twilight 6:20 AM EDT 8:30 PM EDT
Nautical Twilight 5:48 AM EDT 9:02 PM EDT
Astronomical Twilight 5:15 AM EDT 9:35 PM EDT
Moon 12:38 AM EDT (4/20) 11:09 AM EDT (4/20)
Length of Visible Light 14h 10m
Length of Day
13h 16m
Waning Gibbous, 69% of the Moon is Illuminated
Apr 20
Waning Gibbous
Apr 22
Last Quarter
Apr 29
New
May 6
First Quarter
May 14
Full

Hourly Weather History & Observations

Time (EDT) Temp. Windchill Dew Point Humidity Pressure Visibility Wind Dir Wind Speed Gust Speed Precip Events Conditions
12:15 AM 50.0 °F - 50.0 °F 100% 30.29 in 3.0 mi Calm Calm - N/A   Mostly Cloudy
12:35 AM 50.9 °F - 50.9 °F 100% 30.29 in 4.0 mi Calm Calm - N/A   Scattered Clouds
12:55 AM 51.4 °F - 51.4 °F 100% 30.29 in 0.2 mi Calm Calm - N/A Fog Fog
1:15 AM 51.3 °F - 51.3 °F 100% 30.28 in 2.0 mi North 4.6 mph - N/A   Mostly Cloudy
1:35 AM 50.9 °F - 50.9 °F 100% 30.27 in 10.0 mi North 4.6 mph - N/A   Clear
1:55 AM 50.7 °F - 50.7 °F 100% 30.27 in 7.0 mi North 5.8 mph - N/A   Clear
2:15 AM 50.4 °F - 50.4 °F 100% 30.26 in 10.0 mi North 4.6 mph - N/A   Clear
2:35 AM 50.2 °F - 50.2 °F 100% 30.26 in 10.0 mi North 4.6 mph - N/A   Clear
2:55 AM 50.2 °F - 50.2 °F 100% 30.26 in 10.0 mi North 4.6 mph - N/A   Clear
3:15 AM 49.8 °F - 49.6 °F 99% 30.26 in 7.0 mi North 3.5 mph - N/A   Clear
3:35 AM 49.5 °F - 49.3 °F 99% 30.26 in 7.0 mi North 4.6 mph - N/A   Clear
3:55 AM 49.1 °F - 48.9 °F 99% 30.26 in 7.0 mi North 4.6 mph - N/A   Clear
4:15 AM 49.5 °F - 48.0 °F 95% 30.27 in 10.0 mi NNE 4.6 mph - N/A   Clear
4:35 AM 48.9 °F - 47.3 °F 94% 30.27 in 10.0 mi North 3.5 mph - N/A   Clear
4:55 AM 48.2 °F - 47.7 °F 98% 30.28 in 7.0 mi North 4.6 mph - N/A   Clear
5:15 AM 47.7 °F - 47.3 °F 99% 30.28 in 10.0 mi North 3.5 mph - N/A   Clear
5:35 AM 48.2 °F - 47.3 °F 97% 30.28 in 10.0 mi NNW 4.6 mph - N/A   Clear
5:55 AM 46.9 °F - 46.0 °F 97% 30.28 in 10.0 mi NNW 3.5 mph - N/A   Clear
6:15 AM 46.8 °F - 46.0 °F 97% 30.29 in 10.0 mi North 4.6 mph - N/A   Clear
6:35 AM 46.9 °F - 45.7 °F 95% 30.29 in 10.0 mi North 4.6 mph - N/A   Clear
6:55 AM 47.8 °F - 44.6 °F 89% 30.29 in 10.0 mi North 4.6 mph - N/A   Clear
7:15 AM 47.5 °F - 44.6 °F 90% 30.31 in 10.0 mi North 4.6 mph - N/A   Clear
7:35 AM 48.4 °F - 45.5 °F 90% 30.32 in 10.0 mi North 4.6 mph - N/A   Clear
7:55 AM 47.3 °F - 45.0 °F 92% 30.32 in 10.0 mi NNE 3.5 mph - N/A   Clear
8:15 AM 49.6 °F - 45.9 °F 87% 30.32 in 10.0 mi North 4.6 mph - N/A   Clear
8:35 AM 51.3 °F - 45.5 °F 81% 30.33 in 10.0 mi NNW 4.6 mph - N/A   Clear
8:55 AM 52.3 °F - 44.6 °F 75% 30.33 in 10.0 mi North 6.9 mph - N/A   Clear
9:15 AM 54.3 °F - 42.1 °F 63% 30.34 in 10.0 mi North 8.1 mph - N/A   Clear
9:35 AM 55.9 °F - 41.7 °F 59% 30.34 in 10.0 mi NNE 8.1 mph - N/A   Clear
9:55 AM 57.2 °F - 40.1 °F 53% 30.34 in 10.0 mi NNE 9.2 mph - N/A   Clear
10:15 AM 59.7 °F - 39.7 °F 48% 30.35 in 10.0 mi NNE 8.1 mph - N/A   Clear
10:35 AM 60.4 °F - 37.9 °F 43% 30.35 in 10.0 mi NE 6.9 mph 16.1 mph N/A   Clear
10:55 AM 60.3 °F - 37.9 °F 44% 30.35 in 10.0 mi North 10.4 mph 16.1 mph N/A   Clear
11:15 AM 60.6 °F - 36.5 °F 41% 30.34 in 10.0 mi North 10.4 mph 16.1 mph N/A   Clear
11:35 AM 62.1 °F - 37.2 °F 40% 30.35 in 10.0 mi North 8.1 mph - N/A   Clear
11:55 AM 61.9 °F - 33.3 °F 34% 30.34 in 10.0 mi NNE 3.5 mph - N/A   Clear
12:15 PM 63.3 °F - 34.9 °F 35% 30.34 in 10.0 mi ENE 6.9 mph - N/A   Clear
12:35 PM 63.3 °F - 33.8 °F 33% 30.33 in 10.0 mi North 8.1 mph - N/A   Clear
12:55 PM 64.4 °F - 33.6 °F 32% 30.32 in 10.0 mi NNE 9.2 mph - N/A   Clear
1:15 PM 65.5 °F - 32.7 °F 30% 30.31 in 10.0 mi NNE 4.6 mph - N/A   Clear
1:35 PM 66.9 °F - 31.8 °F 27% 30.31 in 10.0 mi NE 3.5 mph - N/A   Clear
1:55 PM 65.7 °F - 31.8 °F 28% 30.30 in 10.0 mi NNW 4.6 mph - N/A   Clear
2:15 PM 66.4 °F - 31.5 °F 27% 30.29 in 10.0 mi North 8.1 mph 17.3 mph N/A   Clear
2:35 PM 67.6 °F - 30.0 °F 25% 30.29 in 10.0 mi ENE 5.8 mph - N/A   Clear
2:55 PM 68.4 °F - 29.1 °F 23% 30.28 in 10.0 mi North 4.6 mph - N/A   Clear
3:15 PM 69.6 °F - 30.9 °F 24% 30.27 in 10.0 mi North 4.6 mph - N/A   Clear
3:35 PM 69.6 °F - 27.9 °F 21% 30.26 in 10.0 mi NNW 5.8 mph - N/A   Clear
3:55 PM 70.9 °F - 29.5 °F 22% 30.25 in 10.0 mi ENE 6.9 mph 16.1 mph N/A   Clear
4:15 PM 70.7 °F - 29.1 °F 21% 30.25 in 10.0 mi NE 5.8 mph - N/A   Clear
4:35 PM 70.9 °F - 28.6 °F 21% 30.24 in 10.0 mi NNW 4.6 mph - N/A   Clear
4:55 PM 71.1 °F - 27.5 °F 20% 30.23 in 10.0 mi NE 8.1 mph - N/A   Clear
5:15 PM 70.9 °F - 27.0 °F 19% 30.23 in 10.0 mi North 6.9 mph - N/A   Clear
5:35 PM 70.9 °F - 26.4 °F 19% 30.23 in 10.0 mi North 6.9 mph - N/A   Clear
5:55 PM 71.6 °F - 28.4 °F 20% 30.24 in 10.0 mi NE 6.9 mph - N/A   Clear
6:15 PM 71.1 °F - 26.1 °F 19% 30.24 in 10.0 mi East 3.5 mph - N/A   Clear
6:35 PM 70.5 °F - 27.1 °F 20% 30.24 in 10.0 mi ENE 5.8 mph - N/A   Clear
6:55 PM 69.6 °F - 28.4 °F 22% 30.24 in 10.0 mi SE 3.5 mph - N/A   Clear
7:15 PM 67.6 °F - 30.6 °F 25% 30.23 in 10.0 mi SE 3.5 mph - N/A   Clear
7:35 PM 65.8 °F - 31.1 °F 27% 30.23 in 10.0 mi ESE 3.5 mph - N/A   Clear
7:55 PM 62.4 °F - 33.3 °F 34% 30.24 in 10.0 mi East 3.5 mph - N/A   Clear
8:15 PM 60.3 °F - 35.1 °F 39% 30.24 in 10.0 mi Calm Calm - N/A   Clear
8:35 PM 52.3 °F - 41.5 °F 67% 30.25 in 10.0 mi Calm Calm - N/A   Clear
8:55 PM 49.5 °F - 41.9 °F 75% 30.25 in 10.0 mi East 3.5 mph - N/A   Clear
9:15 PM 48.7 °F - 39.0 °F 69% 30.26 in 10.0 mi NE 3.5 mph - N/A   Clear
9:35 PM 48.4 °F - 39.7 °F 72% 30.27 in 10.0 mi Calm Calm - N/A   Clear
9:55 PM 46.8 °F - 38.1 °F 72% 30.27 in 10.0 mi Calm Calm - N/A   Clear
10:15 PM 46.9 °F - 38.5 °F 72% 30.27 in 10.0 mi Calm Calm - N/A   Clear
10:35 PM 44.2 °F - 38.8 °F 81% 30.27 in 10.0 mi Calm Calm - N/A   Clear
10:55 PM 44.2 °F - 37.6 °F 77% 30.27 in 10.0 mi Calm Calm - N/A   Clear
11:15 PM 44.4 °F 42.0 °F 38.3 °F 79% 30.27 in 10.0 mi NNW 4.6 mph - N/A   Clear
11:35 PM 43.7 °F 41.1 °F 38.3 °F 81% 30.27 in 10.0 mi North 4.6 mph - N/A   Clear
11:55 PM 41.4 °F 38.4 °F 37.9 °F 88% 30.26 in 10.0 mi North 4.6 mph - N/A   Clear